This demonstration page uses our WeatherBlox Daily Observations layout. Learn more.

Hourly Observations for March 20, 2019

Temp ( °F °C ) Dew Point ( °F °C ) Humidity (%) Winds ( mph kmh ) Pressure ( in mb ) Visibility ( mi km ) Precip ( " mm )
12:15 am 00:15 Clear 32 0 30 -1 93 93 W 6 9 30.36 1028 7 11.265408 0 0
12:35 am 00:35 Clear 32 0 30 -1 93 93 W 7 11 30.36 1028 10 16.09344 0 0
12:55 am 00:55 Clear 32 0 30 -1 93 93 WNW 6 9 30.36 1028 7 11.265408 0 0
1:15 am 01:15 Clear 32 -0.2 30 -1.2 93 93 WNW 7 11 30.39 1029 7 11.265408 0 0
1:35 am 01:35 Clear 31 -0.3 29 -1.5 92 92 W 6 9 30.33 1027 7 11.265408 0 0
1:55 am 01:55 Clear with Mist and Fog 31 -0.7 29 -1.7 93 93 W 7 11 30.36 1028 5 8.04672 0 0
2:15 am 02:15 Clear with Mist and Fog 30 -1 28 -2 93 93 W 5 7 30.36 1028 5 8.04672 0 0
2:35 am 02:35 Clear with Mist and Fog 31 -0.7 29 -1.6 94 94 WNW 7 11 30.36 1028 5 8.04672 0 0
2:55 am 02:55 Clear 31 -0.5 29 -1.6 92 92 WNW 9 15 30.36 1028 7 11.265408 0 0
3:15 am 03:15 Clear 31 -0.3 29 -1.5 92 92 WNW 9 15 30.33 1027 7 11.265408 0 0
3:35 am 03:35 Clear 31 -0.7 28 -2.1 90 90 WNW 7 11 30.36 1028 7 11.265408 0 0
3:55 am 03:55 Clear 31 -0.8 28 -2.2 90 90 WNW 7 11 30.33 1027 7 11.265408 0 0
4:15 am 04:15 Clear 29 -1.4 27 -2.7 91 91 WNW 7 11 30.33 1027 7 11.265408 0 0
4:35 am 04:35 Clear 30 -1.3 27 -2.6 91 91 WNW 6 9 30.33 1027 7 11.265408 0 0
4:55 am 04:55 Clear 30 -1.1 28 -2.2 92 92 W 7 11 30.33 1027 7 11.265408 0 0
5:15 am 05:15 Clear 30 -1.2 28 -2.5 91 91 WNW 7 11 30.33 1027 7 11.265408 0 0
5:35 am 05:35 Clear with Mist and Fog 29 -1.6 27 -2.8 92 92 NW 8 13 30.33 1027 5 8.04672 0 0
5:55 am 05:55 Clear 29 -1.5 27 -2.6 92 92 WNW 7 11 30.33 1027 7 11.265408 0 0
6:15 am 06:15 Clear 29 -1.6 27 -2.9 91 91 W 5 7 30.33 1027 7 11.265408 0 0
6:35 am 06:35 Clear 29 -1.7 27 -3 91 91 WNW 7 11 30.33 1027 7 11.265408 0 0
6:55 am 06:55 Clear 29 -1.7 27 -3 91 91 WNW 6 9 30.3 1026 7 11.265408 0 0
7:15 am 07:15 Clear 29 -1.7 27 -3 91 91 WNW 7 11 30.33 1027 7 11.265408 0 0
7:35 am 07:35 Clear 28 -2 26 -3.4 90 90 WNW 5 7 30.3 1026 7 11.265408 0 0
7:55 am 07:55 Sunny 28 -2.3 26 -3.6 91 91 WNW 5 7 30.3 1026 7 11.265408 0 0
8:15 am 08:15 Sunny 29 -1.6 27 -3 90 90 W 3 6 30.3 1026 7 11.265408 0 0
8:35 am 08:35 Sunny 30 -1 28 -2.4 90 90 W 3 6 30.3 1026 7 11.265408 0 0
8:55 am 08:55 Sunny 32 -0.2 29 -1.9 88 88 WNW 3 6 30.27 1025 10 16.09344 0 0
9:15 am 09:15 Sunny 32 0.2 30 -1.3 90 90 WNW 7 11 30.27 1025 10 16.09344 0 0
9:35 am 09:35 Sunny 34 1 29 -1.4 84 84 WNW 9 15 30.27 1025 10 16.09344 0 0
9:55 am 09:55 Sunny 35 1.7 30 -1.1 82 82 WNW 12 19 30.27 1025 10 16.09344 0 0
10:15 am 10:15 Sunny 37 2.5 30 -0.9 79 79 WNW 15 24 30.24 1024 10 16.09344 0 0
10:35 am 10:35 Sunny 38 3.1 31 -0.3 79 79 WNW 16 26 30.24 1024 10 16.09344 0 0
10:55 am 10:55 Sunny 39 3.7 32 0 77 77 WNW 16 26 30.24 1024 10 16.09344 0 0
11:15 am 11:15 Sunny 40 4.6 33 0.3 74 74 W 14 22 30.24 1024 10 16.09344 0 0
11:35 am 11:35 Sunny 42 5.5 33 0.6 71 71 WNW 14 22 30.21 1023 10 16.09344 0 0
11:55 am 11:55 Sunny 44 6.6 35 1.6 71 71 WNW 12 19 30.21 1023 10 16.09344 0 0
12:15 pm 12:15 Sunny 46 7.7 36 2 68 68 WNW 15 24 30.21 1023 10 16.09344 0 0
12:35 pm 12:35 Sunny 48 9 37 2.5 64 64 WNW 13 20 30.15 1021 10 16.09344 0 0
12:55 pm 12:55 Sunny 51 10.3 38 3.4 63 63 WNW 13 20 30.15 1021 10 16.09344 0 0
1:15 pm 13:15 Sunny 52 11.3 37 2.6 55 55 NW 17 28 30.12 1020 10 16.09344 0 0
1:35 pm 13:35 Sunny 55 12.5 33 0.7 45 45 NW 17 28 30.09 1019 10 16.09344 0 0
1:55 pm 13:55 Sunny 56 13.1 32 0.2 41 41 NW 14 22 30.09 1019 10 16.09344 0 0
2:15 pm 14:15 Sunny 58 14.3 34 0.9 40 40 WNW 14 22 30.06 1018 10 16.09344 0 0
2:35 pm 14:35 Sunny 59 14.8 33 0.6 38 38 NW 18 30 30.06 1018 10 16.09344 0 0
2:55 pm 14:55 Sunny 60 15.6 32 0.1 35 35 NW 20 31 30.03 1017 10 16.09344 0 0
3:15 pm 15:15 Sunny 60 15.7 33 0.8 37 37 NW 21 33 30.03 1017 10 16.09344 0 0
3:35 pm 15:35 Sunny 61 16 33 0.5 35 35 NW 21 33 30.03 1017 10 16.09344 0 0
3:55 pm 15:55 Sunny 61 16 34 1.1 37 37 NNW 18 30 30.03 1017 10 16.09344 0 0
4:15 pm 16:15 Sunny 60 15.7 34 1 37 37 NNW 17 28 30.03 1017 10 16.09344 0 0
4:35 pm 16:35 Sunny 61 15.9 35 1.7 39 39 N 15 24 30.03 1017 10 16.09344 0 0
4:55 pm 16:55 Sunny 60 15.7 35 1.4 38 38 N 18 30 30.06 1018 10 16.09344 0 0
5:15 pm 17:15 Sunny 60 15.4 37 2.5 42 42 N 17 28 30.06 1018 10 16.09344 0 0
5:35 pm 17:35 Sunny 59 15 37 2.6 44 44 N 16 26 30.06 1018 10 16.09344 0 0
5:55 pm 17:55 Sunny 58 14.6 37 2.5 44 44 N 17 28 30.06 1018 10 16.09344 0 0
6:15 pm 18:15 Sunny 58 14.2 38 3.1 47 47 N 16 26 30.06 1018 10 16.09344 0 0
6:35 pm 18:35 Sunny 56 13.5 37 2.8 49 49 N 14 22 30.09 1019 10 16.09344 0 0
6:55 pm 18:55 Sunny 55 13 37 3 51 51 N 14 22 30.12 1020 10 16.09344 0 0
7:15 pm 19:15 Sunny 53 11.9 37 3 55 55 N 12 19 30.12 1020 10 16.09344 0 0
7:35 pm 19:35 Sunny 51 10.6 38 3.2 60 60 N 9 15 30.15 1021 10 16.09344 0 0
7:55 pm 19:55 Clear 48 9.1 37 2.8 65 65 N 9 15 30.18 1022 10 16.09344 0 0
8:15 pm 20:15 Clear 46 7.9 37 2.5 69 69 N 9 15 30.21 1023 10 16.09344 0 0
8:35 pm 20:35 Clear 45 7 36 2 71 71 N 10 17 30.21 1023 10 16.09344 0 0
8:55 pm 20:55 Clear 44 6.5 35 1.5 71 71 N 8 13 30.21 1023 10 16.09344 0 0
9:15 pm 21:15 Clear 42 5.7 34 1.3 74 74 N 8 13 30.24 1024 10 16.09344 0 0
9:35 pm 21:35 Clear 40 4.5 34 1 78 78 N 9 15 30.27 1025 10 16.09344 0 0
9:55 pm 21:55 Clear 39 4 33 0.7 79 79 N 10 17 30.27 1025 10 16.09344 0 0
10:15 pm 22:15 Clear 40 4.4 33 0.7 77 77 N 9 15 30.27 1025 10 16.09344 0 0
10:35 pm 22:35 Clear 38 3.5 32 0.2 79 79 N 8 13 30.27 1025 10 16.09344 0 0
10:55 pm 22:55 Clear 37 3 32 0 81 81 N 8 13 30.27 1025 10 16.09344 0 0
11:15 pm 23:15 Clear 35 1.8 31 -0.3 86 86 N 6 9 30.3 1026 10 16.09344 0 0
11:35 pm 23:35 Clear 35 1.5 31 -0.4 87 87 NNW 6 9 30.3 1026 10 16.09344 0 0
11:55 pm 23:55 Clear 36 2.2 31 -0.3 84 84 NNW 7 11 30.33 1027 10 16.09344 0 0

Powered by AerisWeather